EN

Hourly Weather Lacko

Today, 24 July, Saturday

Time Temperature Precipitation Wind Pressure Humidity
00:00 +19°C° 0 mm 1 mps 754 mmHg 75%
01:00 +19°C° 0 mm 1 mps 754 mmHg 76%
02:00 +19°C° 0 mm 1 mps 754 mmHg 77%
03:00 +18°C° 0 mm 1 mps 754 mmHg 78%
04:00 +18°C° 0 mm 1 mps 754 mmHg 79%
05:00 +19°C° 0 mm 1 mps 754 mmHg 77%
06:00 +20°C° 0 mm 1 mps 754 mmHg 74%
07:00 +21°C° 0 mm 1 mps 754 mmHg 72%
08:00 +22°C° 0 mm 1 mps 754 mmHg 67%
09:00 +23°C° 0 mm 1 mps 754 mmHg 62%
10:00 +25°C° 0 mm 1 mps 754 mmHg 58%
11:00 +25°C° 0 mm 2 mps 754 mmHg 55%
12:00 +26°C° 0 mm 2 mps 754 mmHg 52%
13:00 +27°C° 0 mm 2 mps 753 mmHg 49%
14:00 +26°C° 0 mm 2 mps 753 mmHg 53%
15:00 +25°C° 0 mm 2 mps 753 mmHg 57%
16:00 +25°C° 0 mm 2 mps 753 mmHg 60%
17:00 +24°C° 0 mm 2 mps 753 mmHg 62%
18:00 +24°C° 0 mm 2 mps 753 mmHg 65%
19:00 +23°C° 0 mm 2 mps 753 mmHg 67%
20:00 +23°C° 0 mm 2 mps 753 mmHg 66%
21:00 +21°C° 0 mm 2 mps 753 mmHg 66%
22:00 +21°C° 0 mm 2 mps 753 mmHg 65%
23:00 +20°C° 0 mm 2 mps 753 mmHg 67%

Tomorrow, 25 July, Sunday

Time Temperature Precipitation Wind Pressure Humidity
00:00 +20°C° 0 mm 2 mps 753 mmHg 70%
01:00 +19°C° 0 mm 2 mps 753 mmHg 72%
02:00 +19°C° 0 mm 2 mps 753 mmHg 73%
03:00 +18°C° 0 mm 2 mps 753 mmHg 74%
04:00 +18°C° 0 mm 3 mps 753 mmHg 75%
05:00 +19°C° 0 mm 3 mps 753 mmHg 72%
06:00 +21°C° 0 mm 3 mps 753 mmHg 69%
07:00 +22°C° 0 mm 4 mps 753 mmHg 66%
08:00 +25°C° 0 mm 4 mps 753 mmHg 61%
09:00 +26°C° 0 mm 4 mps 752 mmHg 56%
10:00 +28°C° 0 mm 5 mps 752 mmHg 51%
11:00 +29°C° 0 mm 5 mps 752 mmHg 48%
12:00 +30°C° 0 mm 5 mps 752 mmHg 45%
13:00 +30°C° 0 mm 5 mps 752 mmHg 43%
14:00 +30°C° 0 mm 4 mps 752 mmHg 44%
15:00 +30°C° 0 mm 4 mps 752 mmHg 45%
16:00 +30°C° 0 mm 4 mps 752 mmHg 47%
17:00 +28°C° 0 mm 3 mps 752 mmHg 53%
18:00 +27°C° 0 mm 3 mps 751 mmHg 59%
19:00 +25°C° 0 mm 3 mps 751 mmHg 66%
20:00 +24°C° 0.1 mm 2 mps 751 mmHg 69%
21:00 +23°C° 0.1 mm 2 mps 752 mmHg 72%
22:00 +21°C° 0.1 mm 2 mps 752 mmHg 75%
23:00 +21°C° 0.1 mm 2 mps 751 mmHg 77%

Day after tomorrow, 26 July, Monday

Time Temperature Precipitation Wind Pressure Humidity
00:00 +21°C° 0.1 mm 2 mps 751 mmHg 79%
01:00 +20°C° 0.1 mm 2 mps 751 mmHg 82%
02:00 +20°C° 0 mm 2 mps 751 mmHg 80%
03:00 +20°C° 0 mm 3 mps 751 mmHg 79%
04:00 +20°C° 0 mm 3 mps 750 mmHg 78%
05:00 +21°C° 0 mm 4 mps 750 mmHg 76%
06:00 +22°C° 0 mm 4 mps 750 mmHg 73%
07:00 +23°C° 0 mm 4 mps 750 mmHg 71%
08:00 +25°C° 0 mm 4 mps 750 mmHg 66%
09:00 +26°C° 0 mm 4 mps 750 mmHg 61%
10:00 +28°C° 0 mm 4 mps 750 mmHg 57%
11:00 +28°C° 0 mm 4 mps 750 mmHg 55%
12:00 +29°C° 0 mm 4 mps 750 mmHg 53%
13:00 +30°C° 0 mm 4 mps 750 mmHg 51%
14:00 +30°C° 0 mm 3 mps 750 mmHg 51%
15:00 +30°C° 0 mm 3 mps 750 mmHg 51%
16:00 +30°C° 0 mm 2 mps 750 mmHg 51%
17:00 +29°C° 0 mm 2 mps 750 mmHg 55%
18:00 +28°C° 0 mm 2 mps 750 mmHg 60%
19:00 +27°C° 0 mm 2 mps 750 mmHg 64%
20:00 +26°C° 0 mm 2 mps 750 mmHg 68%
21:00 +25°C° 0 mm 1 mps 750 mmHg 71%
22:00 +24°C° 0 mm 1 mps 751 mmHg 74%
23:00 +23°C° 0 mm 2 mps 751 mmHg 76%

27 July, Tuesday

Time Temperature Precipitation Wind Pressure Humidity
00:00 +21°C° 0 mm 2 mps 751 mmHg 79%
01:00 +21°C° 0 mm 2 mps 751 mmHg 82%
02:00 +20°C° 0 mm 2 mps 751 mmHg 83%
03:00 +20°C° 0 mm 2 mps 751 mmHg 84%
04:00 +20°C° 0 mm 2 mps 751 mmHg 85%
05:00 +21°C° 0 mm 2 mps 751 mmHg 82%
06:00 +23°C° 0 mm 2 mps 751 mmHg 79%
07:00 +24°C° 0 mm 1 mps 752 mmHg 76%
08:00 +25°C° 0 mm 1 mps 752 mmHg 70%
09:00 +27°C° 0 mm 1 mps 752 mmHg 64%
10:00 +28°C° 0 mm 2 mps 752 mmHg 57%
11:00 +29°C° 0 mm 2 mps 752 mmHg 53%
12:00 +30°C° 0 mm 2 mps 752 mmHg 49%
13:00 +31°C° 0 mm 2 mps 751 mmHg 45%
14:00 +30°C° 0 mm 2 mps 751 mmHg 48%
15:00 +30°C° 0 mm 2 mps 751 mmHg 51%
16:00 +29°C° 0 mm 2 mps 751 mmHg 54%
17:00 +28°C° 0.1 mm 3 mps 751 mmHg 59%
18:00 +26°C° 0.1 mm 4 mps 751 mmHg 63%
19:00 +25°C° 0.1 mm 4 mps 751 mmHg 68%
20:00 +23°C° 0.4 mm 4 mps 751 mmHg 71%
21:00 +22°C° 0.4 mm 3 mps 751 mmHg 75%
22:00 +21°C° 0.4 mm 3 mps 751 mmHg 78%
23:00 +21°C° 0.2 mm 2 mps 751 mmHg 79%

28 July, Wednesday

Time Temperature Precipitation Wind Pressure Humidity
00:00 +20°C° 0.2 mm 2 mps 751 mmHg 81%
01:00 +20°C° 0.2 mm 2 mps 751 mmHg 83%
02:00 +20°C° 0.2 mm 2 mps 751 mmHg 85%
03:00 +20°C° 0.2 mm 2 mps 750 mmHg 87%
04:00 +19°C° 0.2 mm 2 mps 750 mmHg 89%
05:00 +20°C° 0.1 mm 2 mps 750 mmHg 88%
06:00 +20°C° 0.1 mm 2 mps 751 mmHg 87%
07:00 +21°C° 0.1 mm 2 mps 751 mmHg 85%
08:00 +22°C° 0.3 mm 3 mps 751 mmHg 80%
09:00 +24°C° 0.3 mm 3 mps 751 mmHg 75%
10:00 +25°C° 0.3 mm 4 mps 751 mmHg 71%
11:00 +25°C° 0.1 mm 4 mps 751 mmHg 66%
12:00 +26°C° 0.1 mm 4 mps 751 mmHg 61%
13:00 +27°C° 0.1 mm 4 mps 751 mmHg 55%
14:00 +27°C° 0.1 mm 4 mps 751 mmHg 56%
15:00 +26°C° 0.1 mm 3 mps 751 mmHg 56%
16:00 +26°C° 0.1 mm 3 mps 751 mmHg 56%
17:00 +25°C° 0 mm 3 mps 751 mmHg 59%
18:00 +25°C° 0 mm 3 mps 751 mmHg 61%
19:00 +24°C° 0 mm 3 mps 752 mmHg 64%
20:00 +22°C° 0 mm 3 mps 752 mmHg 67%
21:00 +21°C° 0 mm 3 mps 752 mmHg 71%
22:00 +19°C° 0 mm 2 mps 752 mmHg 75%
23:00 +19°C° 0 mm 2 mps 753 mmHg 75%

29 July, Thursday

Time Temperature Precipitation Wind Pressure Humidity
00:00 +19°C° 0 mm 2 mps 753 mmHg 75%
01:00 +19°C° 0 mm 2 mps 753 mmHg 75%
02:00 +18°C° 0 mm 2 mps 753 mmHg 76%
03:00 +18°C° 0 mm 2 mps 753 mmHg 77%
04:00 +18°C° 0 mm 2 mps 753 mmHg 78%
05:00 +19°C° 0 mm 3 mps 753 mmHg 74%
06:00 +20°C° 0 mm 3 mps 753 mmHg 70%
07:00 +22°C° 0 mm 3 mps 753 mmHg 65%
08:00 +24°C° 0 mm 3 mps 753 mmHg 60%
09:00 +25°C° 0 mm 3 mps 753 mmHg 55%
10:00 +27°C° 0 mm 3 mps 753 mmHg 50%
11:00 +27°C° 0 mm 3 mps 753 mmHg 47%
12:00 +28°C° 0 mm 3 mps 753 mmHg 45%
13:00 +29°C° 0 mm 3 mps 753 mmHg 43%
14:00 +28°C° 0 mm 3 mps 753 mmHg 48%
15:00 +27°C° 0 mm 2 mps 753 mmHg 52%
16:00 +26°C° 0 mm 1 mps 752 mmHg 57%
17:00 +26°C° 0 mm 2 mps 752 mmHg 58%
18:00 +25°C° 0 mm 2 mps 752 mmHg 60%
19:00 +25°C° 0 mm 2 mps 752 mmHg 62%
20:00 +24°C° 0 mm 2 mps 752 mmHg 63%
21:00 +24°C° 0 mm 1 mps 752 mmHg 64%
22:00 +23°C° 0 mm 1 mps 752 mmHg 65%
23:00 +23°C° 0 mm 1 mps 751 mmHg 67%
Show more